owner,sensor,date,latitude,longitude,mass_concentration_of_chlorophyll_in_sea_water,qcFlag 
SCCF RECON,ioos:station:SCCF:53:1,2008-02-01T01:00:00Z,26.6493,-81.8810,2.55,1111122 
SCCF RECON,ioos:station:SCCF:53:1,2008-02-01T02:00:00Z,26.6493,-81.8810,2.42,1111122 
SCCF RECON,ioos:station:SCCF:53:1,2008-02-01T03:00:00Z,26.6493,-81.8810,2.36,1111122 
SCCF RECON,ioos:station:SCCF:53:1,2008-02-01T04:00:00Z,26.6493,-81.8810,2.18,1111122 
SCCF RECON,ioos:station:SCCF:53:1,2008-02-01T05:00:00Z,26.6493,-81.8810,2.27,1111122 
SCCF RECON,ioos:station:SCCF:53:1,2008-02-01T06:00:00Z,26.6493,-81.8810,2.2,1111122 
SCCF RECON,ioos:station:SCCF:53:1,2008-02-01T07:00:00Z,26.6493,-81.8810,2.31,1111122 
SCCF RECON,ioos:station:SCCF:53:1,2008-02-01T08:00:00Z,26.6493,-81.8810,2.24,1111122 
SCCF RECON,ioos:station:SCCF:53:1,2008-02-01T09:00:00Z,26.6493,-81.8810,2.3,1111122 
SCCF RECON,ioos:station:SCCF:53:1,2008-02-01T10:00:00Z,26.6493,-81.8810,2.34,1111122 
SCCF RECON,ioos:station:SCCF:53:1,2008-02-01T11:00:00Z,26.6493,-81.8810,2.8,1111122 
SCCF RECON,ioos:station:SCCF:53:1,2008-02-01T12:00:00Z,26.6493,-81.8810,2.32,1111122 
SCCF RECON,ioos:station:SCCF:53:1,2008-02-01T13:00:00Z,26.6493,-81.8810,2.26,1111122 
SCCF RECON,ioos:station:SCCF:53:1,2008-02-01T14:00:00Z,26.6493,-81.8810,3.01,1111122 
SCCF RECON,ioos:station:SCCF:53:1,2008-02-01T15:00:00Z,26.6493,-81.8810,2.22,1111122 
SCCF RECON,ioos:station:SCCF:53:1,2008-02-01T16:00:00Z,26.6493,-81.8810,2.16,1111122 
SCCF RECON,ioos:station:SCCF:53:1,2008-02-01T17:00:00Z,26.6493,-81.8810,2.13,1111122 
SCCF RECON,ioos:station:SCCF:53:1,2008-02-01T18:00:00Z,26.6493,-81.8810,2.04,1111122 
SCCF RECON,ioos:station:SCCF:53:1,2008-02-01T19:00:00Z,26.6493,-81.8810,2.01,1111122 
SCCF RECON,ioos:station:SCCF:53:1,2008-02-01T20:00:00Z,26.6493,-81.8810,2.02,1111122 
SCCF RECON,ioos:station:SCCF:53:1,2008-02-01T21:00:00Z,26.6493,-81.8810,2.32,1111122 
SCCF RECON,ioos:station:SCCF:53:1,2008-02-01T22:00:00Z,26.6493,-81.8810,2.42,1111122 
SCCF RECON,ioos:station:SCCF:53:1,2008-02-01T23:00:00Z,26.6493,-81.8810,2.89,1111122 
SCCF RECON,ioos:station:SCCF:53:1,2008-02-02T00:00:00Z,26.6493,-81.8810,2.72,1111122 
SCCF RECON,ioos:station:SCCF:53:1,2008-02-02T01:00:00Z,26.6493,-81.8810,2.9,1111122 
SCCF RECON,ioos:station:SCCF:53:1,2008-02-02T02:00:00Z,26.6493,-81.8810,2.74,1111122 
SCCF RECON,ioos:station:SCCF:53:1,2008-02-02T03:00:00Z,26.6493,-81.8810,2.52,1111122 
SCCF RECON,ioos:station:SCCF:53:1,2008-02-02T04:00:00Z,26.6493,-81.8810,2.02,1111122 
SCCF RECON,ioos:station:SCCF:53:1,2008-02-02T05:00:00Z,26.6493,-81.8810,2.06,1111122 
SCCF RECON,ioos:station:SCCF:53:1,2008-02-02T06:00:00Z,26.6493,-81.8810,2.34,1111122 
SCCF RECON,ioos:station:SCCF:53:1,2008-02-02T07:00:00Z,26.6493,-81.8810,2.59,1111122 
SCCF RECON,ioos:station:SCCF:53:1,2008-02-02T08:00:00Z,26.6493,-81.8810,3.32,1111122 
SCCF RECON,ioos:station:SCCF:53:1,2008-02-02T09:00:00Z,26.6493,-81.8810,2.48,1111122 
SCCF RECON,ioos:station:SCCF:53:1,2008-02-02T10:00:00Z,26.6493,-81.8810,2.96,1111122 
SCCF RECON,ioos:station:SCCF:53:1,2008-02-02T11:00:00Z,26.6493,-81.8810,4.04,1111122 
SCCF RECON,ioos:station:SCCF:53:1,2008-02-02T12:00:00Z,26.6493,-81.8810,4.15,1111122 
SCCF RECON,ioos:station:SCCF:53:1,2008-02-02T13:00:00Z,26.6493,-81.8810,2.61,1111122 
SCCF RECON,ioos:station:SCCF:53:1,2008-02-02T14:00:00Z,26.6493,-81.8810,2.51,1111122 
SCCF RECON,ioos:station:SCCF:53:1,2008-02-02T15:00:00Z,26.6493,-81.8810,2.75,1111122 
SCCF RECON,ioos:station:SCCF:53:1,2008-02-02T16:00:00Z,26.6493,-81.8810,2.98,1111122 
SCCF RECON,ioos:station:SCCF:53:1,2008-02-02T17:00:00Z,26.6493,-81.8810,2.77,1111122 
SCCF RECON,ioos:station:SCCF:53:1,2008-02-02T18:00:00Z,26.6493,-81.8810,2.6,1111122 
SCCF RECON,ioos:station:SCCF:53:1,2008-02-02T19:00:00Z,26.6493,-81.8810,2.12,1111122 
SCCF RECON,ioos:station:SCCF:53:1,2008-02-02T20:00:00Z,26.6493,-81.8810,2.2,1111122 
SCCF RECON,ioos:station:SCCF:53:1,2008-02-02T21:00:00Z,26.6493,-81.8810,2.0,1111122 
SCCF RECON,ioos:station:SCCF:53:1,2008-02-02T22:00:00Z,26.6493,-81.8810,2.35,1111122 
SCCF RECON,ioos:station:SCCF:53:1,2008-02-02T23:00:00Z,26.6493,-81.8810,2.42,1111122 
SCCF RECON,ioos:station:SCCF:53:1,2008-02-03T00:00:00Z,26.6493,-81.8810,2.74,1111122 
SCCF RECON,ioos:station:SCCF:53:1,2008-02-03T01:00:00Z,26.6493,-81.8810,2.79,1111122 
SCCF RECON,ioos:station:SCCF:53:1,2008-02-03T03:00:00Z,26.6493,-81.8810,2.48,1111122 
SCCF RECON,ioos:station:SCCF:53:1,2008-02-03T04:00:00Z,26.6493,-81.8810,2.19,1111122 
SCCF RECON,ioos:station:SCCF:53:1,2008-02-03T05:00:00Z,26.6493,-81.8810,4.61,1111122 
SCCF RECON,ioos:station:SCCF:53:1,2008-02-03T06:00:00Z,26.6493,-81.8810,2.4,1111122 
SCCF RECON,ioos:station:SCCF:53:1,2008-02-03T07:00:00Z,26.6493,-81.8810,2.69,1111122 
SCCF RECON,ioos:station:SCCF:53:1,2008-02-03T08:00:00Z,26.6493,-81.8810,2.4,1111122 
SCCF RECON,ioos:station:SCCF:53:1,2008-02-03T09:00:00Z,26.6493,-81.8810,2.39,1111122 
SCCF RECON,ioos:station:SCCF:53:1,2008-02-03T10:00:00Z,26.6493,-81.8810,2.34,1111122 
SCCF RECON,ioos:station:SCCF:53:1,2008-02-03T11:00:00Z,26.6493,-81.8810,2.35,1111122 
SCCF RECON,ioos:station:SCCF:53:1,2008-02-03T12:00:00Z,26.6493,-81.8810,2.15,1111122 
SCCF RECON,ioos:station:SCCF:53:1,2008-02-03T13:00:00Z,26.6493,-81.8810,2.76,1111122 
SCCF RECON,ioos:station:SCCF:53:1,2008-02-03T14:00:00Z,26.6493,-81.8810,2.63,1111122 
SCCF RECON,ioos:station:SCCF:53:1,2008-02-03T15:00:00Z,26.6493,-81.8810,2.66,1111122 
SCCF RECON,ioos:station:SCCF:53:1,2008-02-03T17:00:00Z,26.6493,-81.8810,2.48,1111122 
SCCF RECON,ioos:station:SCCF:53:1,2008-02-03T18:00:00Z,26.6493,-81.8810,2.48,1111122 
SCCF RECON,ioos:station:SCCF:53:1,2008-02-03T19:00:00Z,26.6493,-81.8810,2.57,1111122 
SCCF RECON,ioos:station:SCCF:53:1,2008-02-03T20:00:00Z,26.6493,-81.8810,2.24,1111122 
SCCF RECON,ioos:station:SCCF:53:1,2008-02-03T21:00:00Z,26.6493,-81.8810,2.4,1111122 
SCCF RECON,ioos:station:SCCF:53:1,2008-02-03T22:00:00Z,26.6493,-81.8810,2.77,1111122 
SCCF RECON,ioos:station:SCCF:53:1,2008-02-03T23:00:00Z,26.6493,-81.8810,2.92,1111122 
SCCF RECON,ioos:station:SCCF:53:1,2008-02-04T00:00:00Z,26.6493,-81.8810,3.1,1111122 
SCCF RECON,ioos:station:SCCF:53:1,2008-02-04T01:00:00Z,26.6493,-81.8810,2.87,1111122 
SCCF RECON,ioos:station:SCCF:53:1,2008-02-04T02:00:00Z,26.6493,-81.8810,2.95,1111122 
SCCF RECON,ioos:station:SCCF:53:1,2008-02-04T04:00:00Z,26.6493,-81.8810,2.69,1111122 
SCCF RECON,ioos:station:SCCF:53:1,2008-02-04T05:00:00Z,26.6493,-81.8810,2.98,1111122 
SCCF RECON,ioos:station:SCCF:53:1,2008-02-04T06:00:00Z,26.6493,-81.8810,3.0,1111122 
SCCF RECON,ioos:station:SCCF:53:1,2008-02-04T07:00:00Z,26.6493,-81.8810,2.49,1111122 
SCCF RECON,ioos:station:SCCF:53:1,2008-02-04T08:00:00Z,26.6493,-81.8810,2.71,1111122 
SCCF RECON,ioos:station:SCCF:53:1,2008-02-04T09:00:00Z,26.6493,-81.8810,2.61,1111122 
SCCF RECON,ioos:station:SCCF:53:1,2008-02-04T10:00:00Z,26.6493,-81.8810,3.02,1111122 
SCCF RECON,ioos:station:SCCF:53:1,2008-02-04T11:00:00Z,26.6493,-81.8810,2.56,1111122 
SCCF RECON,ioos:station:SCCF:53:1,2008-02-04T12:00:00Z,26.6493,-81.8810,2.87,1111122 
SCCF RECON,ioos:station:SCCF:53:1,2008-02-04T13:00:00Z,26.6493,-81.8810,4.94,1111122 
SCCF RECON,ioos:station:SCCF:53:1,2008-02-04T14:00:00Z,26.6493,-81.8810,2.62,1111122 
SCCF RECON,ioos:station:SCCF:53:1,2008-02-04T15:00:00Z,26.6493,-81.8810,2.48,1111122 
SCCF RECON,ioos:station:SCCF:53:1,2008-02-04T16:00:00Z,26.6493,-81.8810,2.71,1111122 
SCCF RECON,ioos:station:SCCF:53:1,2008-02-04T17:00:00Z,26.6493,-81.8810,2.7,1111122 
SCCF RECON,ioos:station:SCCF:53:1,2008-02-04T18:00:00Z,26.6493,-81.8810,2.85,1111122 
SCCF RECON,ioos:station:SCCF:53:1,2008-02-04T20:00:00Z,26.6493,-81.8810,2.68,1111122 
SCCF RECON,ioos:station:SCCF:53:1,2008-02-04T21:00:00Z,26.6493,-81.8810,2.52,1111122 
SCCF RECON,ioos:station:SCCF:53:1,2008-02-04T23:00:00Z,26.6493,-81.8810,3.01,1111122 
SCCF RECON,ioos:station:SCCF:53:1,2008-02-05T00:00:00Z,26.6493,-81.8810,3.21,1111122 
SCCF RECON,ioos:station:SCCF:53:1,2008-02-05T01:00:00Z,26.6493,-81.8810,3.27,1111122 
SCCF RECON,ioos:station:SCCF:53:1,2008-02-05T02:00:00Z,26.6493,-81.8810,3.32,1111122 
SCCF RECON,ioos:station:SCCF:53:1,2008-02-05T03:00:00Z,26.6493,-81.8810,2.87,1111122 
SCCF RECON,ioos:station:SCCF:53:1,2008-02-05T04:00:00Z,26.6493,-81.8810,2.74,1111122 
SCCF RECON,ioos:station:SCCF:53:1,2008-02-05T05:00:00Z,26.6493,-81.8810,2.66,1111122 
SCCF RECON,ioos:station:SCCF:53:1,2008-02-05T06:00:00Z,26.6493,-81.8810,2.77,1111122 
SCCF RECON,ioos:station:SCCF:53:1,2008-02-05T07:00:00Z,26.6493,-81.8810,2.89,1111122 
SCCF RECON,ioos:station:SCCF:53:1,2008-02-05T08:00:00Z,26.6493,-81.8810,2.7,1111122 
SCCF RECON,ioos:station:SCCF:53:1,2008-02-05T09:00:00Z,26.6493,-81.8810,2.72,1111122 
SCCF RECON,ioos:station:SCCF:53:1,2008-02-05T10:00:00Z,26.6493,-81.8810,2.65,1111122 
SCCF RECON,ioos:station:SCCF:53:1,2008-02-05T11:00:00Z,26.6493,-81.8810,2.71,1111122 
SCCF RECON,ioos:station:SCCF:53:1,2008-02-05T12:00:00Z,26.6493,-81.8810,2.62,1111122 
SCCF RECON,ioos:station:SCCF:53:1,2008-02-05T13:00:00Z,26.6493,-81.8810,2.71,1111122 
SCCF RECON,ioos:station:SCCF:53:1,2008-02-05T14:00:00Z,26.6493,-81.8810,2.84,1111122 
SCCF RECON,ioos:station:SCCF:53:1,2008-02-05T15:00:00Z,26.6493,-81.8810,3.02,1111122 
SCCF RECON,ioos:station:SCCF:53:1,2008-02-05T16:00:00Z,26.6493,-81.8810,3.02,1111122 
SCCF RECON,ioos:station:SCCF:53:1,2008-02-05T17:00:00Z,26.6493,-81.8810,3.12,1111122 
SCCF RECON,ioos:station:SCCF:53:1,2008-02-05T18:00:00Z,26.6493,-81.8810,3.08,1111122 
SCCF RECON,ioos:station:SCCF:53:1,2008-02-05T19:00:00Z,26.6493,-81.8810,2.97,1111122 
SCCF RECON,ioos:station:SCCF:53:1,2008-02-05T20:00:00Z,26.6493,-81.8810,3.02,1111122 
SCCF RECON,ioos:station:SCCF:53:1,2008-02-05T21:00:00Z,26.6493,-81.8810,3.36,1111122 
SCCF RECON,ioos:station:SCCF:53:1,2008-02-05T22:00:00Z,26.6493,-81.8810,3.8,1111122 
SCCF RECON,ioos:station:SCCF:53:1,2008-02-05T23:00:00Z,26.6493,-81.8810,4.07,1111122 
SCCF RECON,ioos:station:SCCF:53:1,2008-02-06T00:00:00Z,26.6493,-81.8810,4.1,1111122 
SCCF RECON,ioos:station:SCCF:53:1,2008-02-06T01:00:00Z,26.6493,-81.8810,4.03,1111122 
SCCF RECON,ioos:station:SCCF:53:1,2008-02-06T02:00:00Z,26.6493,-81.8810,4.09,1111122 
SCCF RECON,ioos:station:SCCF:53:1,2008-02-06T03:00:00Z,26.6493,-81.8810,4.03,1111122 
SCCF RECON,ioos:station:SCCF:53:1,2008-02-06T04:00:00Z,26.6493,-81.8810,4.04,1111122 
SCCF RECON,ioos:station:SCCF:53:1,2008-02-06T05:00:00Z,26.6493,-81.8810,3.79,1111122 
SCCF RECON,ioos:station:SCCF:53:1,2008-02-06T06:00:00Z,26.6493,-81.8810,3.68,1111122 
SCCF RECON,ioos:station:SCCF:53:1,2008-02-06T07:00:00Z,26.6493,-81.8810,3.48,1111122 
SCCF RECON,ioos:station:SCCF:53:1,2008-02-06T08:00:00Z,26.6493,-81.8810,3.13,1111122 
SCCF RECON,ioos:station:SCCF:53:1,2008-02-06T09:00:00Z,26.6493,-81.8810,3.21,1111122 
SCCF RECON,ioos:station:SCCF:53:1,2008-02-06T10:00:00Z,26.6493,-81.8810,3.17,1111122 
SCCF RECON,ioos:station:SCCF:53:1,2008-02-06T11:00:00Z,26.6493,-81.8810,3.25,1111122 
SCCF RECON,ioos:station:SCCF:53:1,2008-02-06T12:00:00Z,26.6493,-81.8810,3.03,1111122 
SCCF RECON,ioos:station:SCCF:53:1,2008-02-06T13:00:00Z,26.6493,-81.8810,2.73,1111122 
SCCF RECON,ioos:station:SCCF:53:1,2008-02-06T14:00:00Z,26.6493,-81.8810,2.66,1111122 
SCCF RECON,ioos:station:SCCF:53:1,2008-02-06T15:00:00Z,26.6493,-81.8810,2.71,1111122 
SCCF RECON,ioos:station:SCCF:53:1,2008-02-06T16:00:00Z,26.6493,-81.8810,2.79,1111122 
SCCF RECON,ioos:station:SCCF:53:1,2008-02-06T17:00:00Z,26.6493,-81.8810,2.83,1111122 
SCCF RECON,ioos:station:SCCF:53:1,2008-02-06T18:00:00Z,26.6493,-81.8810,2.69,1111122 
SCCF RECON,ioos:station:SCCF:53:1,2008-02-06T19:00:00Z,26.6493,-81.8810,3.17,1111122 
SCCF RECON,ioos:station:SCCF:53:1,2008-02-06T20:00:00Z,26.6493,-81.8810,3.58,1111122 
SCCF RECON,ioos:station:SCCF:53:1,2008-02-06T21:00:00Z,26.6493,-81.8810,3.78,1111122 
SCCF RECON,ioos:station:SCCF:53:1,2008-02-06T22:00:00Z,26.6493,-81.8810,4.24,1111122 
SCCF RECON,ioos:station:SCCF:53:1,2008-02-06T23:00:00Z,26.6493,-81.8810,4.5,1111122 
SCCF RECON,ioos:station:SCCF:53:1,2008-02-07T00:00:00Z,26.6493,-81.8810,4.23,1111122 
SCCF RECON,ioos:station:SCCF:53:1,2008-02-07T01:00:00Z,26.6493,-81.8810,3.77,1111122 
SCCF RECON,ioos:station:SCCF:53:1,2008-02-07T02:00:00Z,26.6493,-81.8810,3.68,1111122 
SCCF RECON,ioos:station:SCCF:53:1,2008-02-07T03:00:00Z,26.6493,-81.8810,3.77,1111122 
SCCF RECON,ioos:station:SCCF:53:1,2008-02-07T04:00:00Z,26.6493,-81.8810,3.57,1111122 
SCCF RECON,ioos:station:SCCF:53:1,2008-02-07T05:00:00Z,26.6493,-81.8810,3.85,1111122 
SCCF RECON,ioos:station:SCCF:53:1,2008-02-07T06:00:00Z,26.6493,-81.8810,3.58,1111122 
SCCF RECON,ioos:station:SCCF:53:1,2008-02-07T07:00:00Z,26.6493,-81.8810,3.48,1111122 
SCCF RECON,ioos:station:SCCF:53:1,2008-02-07T08:00:00Z,26.6493,-81.8810,3.46,1111122 
SCCF RECON,ioos:station:SCCF:53:1,2008-02-07T09:00:00Z,26.6493,-81.8810,3.12,1111122 
SCCF RECON,ioos:station:SCCF:53:1,2008-02-07T10:00:00Z,26.6493,-81.8810,3.17,1111122 
SCCF RECON,ioos:station:SCCF:53:1,2008-02-07T11:00:00Z,26.6493,-81.8810,3.01,1111122 
SCCF RECON,ioos:station:SCCF:53:1,2008-02-07T12:00:00Z,26.6493,-81.8810,2.94,1111122 
SCCF RECON,ioos:station:SCCF:53:1,2008-02-07T13:00:00Z,26.6493,-81.8810,2.53,1111122 
SCCF RECON,ioos:station:SCCF:53:1,2008-02-07T14:00:00Z,26.6493,-81.8810,2.51,1111122 
SCCF RECON,ioos:station:SCCF:53:1,2008-02-07T15:00:00Z,26.6493,-81.8810,2.62,1111122 
SCCF RECON,ioos:station:SCCF:53:1,2008-02-07T16:00:00Z,26.6493,-81.8810,2.66,1111122 
SCCF RECON,ioos:station:SCCF:53:1,2008-02-07T17:00:00Z,26.6493,-81.8810,2.76,1111122 
SCCF RECON,ioos:station:SCCF:53:1,2008-02-07T18:00:00Z,26.6493,-81.8810,2.66,1111122 
SCCF RECON,ioos:station:SCCF:53:1,2008-02-07T19:00:00Z,26.6493,-81.8810,2.67,1111122 
SCCF RECON,ioos:station:SCCF:53:1,2008-02-07T20:00:00Z,26.6493,-81.8810,2.81,1111122 
SCCF RECON,ioos:station:SCCF:53:1,2008-02-07T21:00:00Z,26.6493,-81.8810,2.92,1111122 
SCCF RECON,ioos:station:SCCF:53:1,2008-02-07T22:00:00Z,26.6493,-81.8810,3.16,1111122 
SCCF RECON,ioos:station:SCCF:53:1,2008-02-07T23:00:00Z,26.6493,-81.8810,3.08,1111122 
SCCF RECON,ioos:station:SCCF:53:1,2008-02-08T00:00:00Z,26.6493,-81.8810,3.12,1111122 
SCCF RECON,ioos:station:SCCF:53:1,2008-02-08T01:00:00Z,26.6493,-81.8810,3.05,1111122 
SCCF RECON,ioos:station:SCCF:53:1,2008-02-08T02:00:00Z,26.6493,-81.8810,3.19,1111122 
SCCF RECON,ioos:station:SCCF:53:1,2008-02-08T04:00:00Z,26.6493,-81.8810,3.15,1111122 
SCCF RECON,ioos:station:SCCF:53:1,2008-02-08T05:00:00Z,26.6493,-81.8810,2.95,1111122 
SCCF RECON,ioos:station:SCCF:53:1,2008-02-08T06:00:00Z,26.6493,-81.8810,2.49,1111122 
SCCF RECON,ioos:station:SCCF:53:1,2008-02-08T07:00:00Z,26.6493,-81.8810,2.53,1111122 
SCCF RECON,ioos:station:SCCF:53:1,2008-02-08T08:00:00Z,26.6493,-81.8810,2.65,1111122 
SCCF RECON,ioos:station:SCCF:53:1,2008-02-08T09:00:00Z,26.6493,-81.8810,2.51,1111122 
SCCF RECON,ioos:station:SCCF:53:1,2008-02-08T10:00:00Z,26.6493,-81.8810,2.62,1111122 
SCCF RECON,ioos:station:SCCF:53:1,2008-02-08T11:00:00Z,26.6493,-81.8810,2.38,1111122 
SCCF RECON,ioos:station:SCCF:53:1,2008-02-08T12:00:00Z,26.6493,-81.8810,2.44,1111122 
SCCF RECON,ioos:station:SCCF:53:1,2008-02-08T13:00:00Z,26.6493,-81.8810,2.32,1111122 
SCCF RECON,ioos:station:SCCF:53:1,2008-02-08T14:00:00Z,26.6493,-81.8810,2.29,1111122 
SCCF RECON,ioos:station:SCCF:53:1,2008-02-08T15:00:00Z,26.6493,-81.8810,2.28,1111122 
SCCF RECON,ioos:station:SCCF:53:1,2008-02-08T16:00:00Z,26.6493,-81.8810,2.4,1111122 
SCCF RECON,ioos:station:SCCF:53:1,2008-02-08T17:00:00Z,26.6493,-81.8810,2.55,1111122 
SCCF RECON,ioos:station:SCCF:53:1,2008-02-08T18:00:00Z,26.6493,-81.8810,2.59,1111122 
SCCF RECON,ioos:station:SCCF:53:1,2008-02-08T19:00:00Z,26.6493,-81.8810,2.52,1111122 
SCCF RECON,ioos:station:SCCF:53:1,2008-02-08T20:00:00Z,26.6493,-81.8810,2.29,1111122 
SCCF RECON,ioos:station:SCCF:53:1,2008-02-08T21:00:00Z,26.6493,-81.8810,2.52,1111122 
SCCF RECON,ioos:station:SCCF:53:1,2008-02-08T22:00:00Z,26.6493,-81.8810,2.53,1111122 
SCCF RECON,ioos:station:SCCF:53:1,2008-02-08T23:00:00Z,26.6493,-81.8810,2.93,1111122 
SCCF RECON,ioos:station:SCCF:53:1,2008-02-09T00:00:00Z,26.6493,-81.8810,2.73,1111122 
SCCF RECON,ioos:station:SCCF:53:1,2008-02-09T01:00:00Z,26.6493,-81.8810,2.68,1111122 
SCCF RECON,ioos:station:SCCF:53:1,2008-02-09T02:00:00Z,26.6493,-81.8810,2.97,1111122 
SCCF RECON,ioos:station:SCCF:53:1,2008-02-09T03:00:00Z,26.6493,-81.8810,3.1,1111122 
SCCF RECON,ioos:station:SCCF:53:1,2008-02-09T04:00:00Z,26.6493,-81.8810,3.11,1111122 
SCCF RECON,ioos:station:SCCF:53:1,2008-02-09T05:00:00Z,26.6493,-81.8810,2.61,1111122 
SCCF RECON,ioos:station:SCCF:53:1,2008-02-09T06:00:00Z,26.6493,-81.8810,2.54,1111122 
SCCF RECON,ioos:station:SCCF:53:1,2008-02-09T07:00:00Z,26.6493,-81.8810,2.52,1111122 
SCCF RECON,ioos:station:SCCF:53:1,2008-02-09T08:00:00Z,26.6493,-81.8810,2.67,1111122 
SCCF RECON,ioos:station:SCCF:53:1,2008-02-09T09:00:00Z,26.6493,-81.8810,2.52,1111122 
SCCF RECON,ioos:station:SCCF:53:1,2008-02-09T10:00:00Z,26.6493,-81.8810,2.56,1111122 
SCCF RECON,ioos:station:SCCF:53:1,2008-02-09T11:00:00Z,26.6493,-81.8810,2.27,1111122 
SCCF RECON,ioos:station:SCCF:53:1,2008-02-09T12:00:00Z,26.6493,-81.8810,2.23,1111122 
SCCF RECON,ioos:station:SCCF:53:1,2008-02-09T13:00:00Z,26.6493,-81.8810,2.17,1111122 
SCCF RECON,ioos:station:SCCF:53:1,2008-02-09T14:00:00Z,26.6493,-81.8810,2.23,1111122 
SCCF RECON,ioos:station:SCCF:53:1,2008-02-09T15:00:00Z,26.6493,-81.8810,2.22,1111122 
SCCF RECON,ioos:station:SCCF:53:1,2008-02-09T16:00:00Z,26.6493,-81.8810,2.34,1111122 
SCCF RECON,ioos:station:SCCF:53:1,2008-02-09T17:00:00Z,26.6493,-81.8810,2.36,1111122 
SCCF RECON,ioos:station:SCCF:53:1,2008-02-09T18:00:00Z,26.6493,-81.8810,2.33,1111122 
SCCF RECON,ioos:station:SCCF:53:1,2008-02-09T19:00:00Z,26.6493,-81.8810,2.76,1111122 
SCCF RECON,ioos:station:SCCF:53:1,2008-02-09T20:00:00Z,26.6493,-81.8810,2.97,1111122 
SCCF RECON,ioos:station:SCCF:53:1,2008-02-09T21:00:00Z,26.6493,-81.8810,3.14,1111122 
SCCF RECON,ioos:station:SCCF:53:1,2008-02-09T22:00:00Z,26.6493,-81.8810,3.4,1111122 
SCCF RECON,ioos:station:SCCF:53:1,2008-02-09T23:00:00Z,26.6493,-81.8810,3.69,1111122 
SCCF RECON,ioos:station:SCCF:53:1,2008-02-10T00:00:00Z,26.6493,-81.8810,4.31,1111122 
SCCF RECON,ioos:station:SCCF:53:1,2008-02-10T01:00:00Z,26.6493,-81.8810,3.82,1111122 
SCCF RECON,ioos:station:SCCF:53:1,2008-02-10T02:00:00Z,26.6493,-81.8810,4.22,1111122 
SCCF RECON,ioos:station:SCCF:53:1,2008-02-10T03:00:00Z,26.6493,-81.8810,4.24,1111122 
SCCF RECON,ioos:station:SCCF:53:1,2008-02-10T04:00:00Z,26.6493,-81.8810,4.16,1111122 
SCCF RECON,ioos:station:SCCF:53:1,2008-02-10T05:00:00Z,26.6493,-81.8810,4.36,1111122 
SCCF RECON,ioos:station:SCCF:53:1,2008-02-10T06:00:00Z,26.6493,-81.8810,4.17,1111122 
SCCF RECON,ioos:station:SCCF:53:1,2008-02-10T07:00:00Z,26.6493,-81.8810,3.83,1111122 
SCCF RECON,ioos:station:SCCF:53:1,2008-02-10T08:00:00Z,26.6493,-81.8810,3.59,1111122 
SCCF RECON,ioos:station:SCCF:53:1,2008-02-10T09:00:00Z,26.6493,-81.8810,3.51,1111122 
SCCF RECON,ioos:station:SCCF:53:1,2008-02-10T10:00:00Z,26.6493,-81.8810,3.18,1111122 
SCCF RECON,ioos:station:SCCF:53:1,2008-02-10T11:00:00Z,26.6493,-81.8810,3.55,1111122 
SCCF RECON,ioos:station:SCCF:53:1,2008-02-10T12:00:00Z,26.6493,-81.8810,3.29,1111122 
SCCF RECON,ioos:station:SCCF:53:1,2008-02-10T13:00:00Z,26.6493,-81.8810,2.9,1111122 
SCCF RECON,ioos:station:SCCF:53:1,2008-02-10T14:00:00Z,26.6493,-81.8810,2.9,1111122 
SCCF RECON,ioos:station:SCCF:53:1,2008-02-10T15:00:00Z,26.6493,-81.8810,2.93,1111122 
SCCF RECON,ioos:station:SCCF:53:1,2008-02-10T16:00:00Z,26.6493,-81.8810,3.02,1111122 
SCCF RECON,ioos:station:SCCF:53:1,2008-02-10T17:00:00Z,26.6493,-81.8810,3.21,1111122 
SCCF RECON,ioos:station:SCCF:53:1,2008-02-10T18:00:00Z,26.6493,-81.8810,3.52,1111122 
SCCF RECON,ioos:station:SCCF:53:1,2008-02-10T19:00:00Z,26.6493,-81.8810,3.58,1111122 
SCCF RECON,ioos:station:SCCF:53:1,2008-02-10T20:00:00Z,26.6493,-81.8810,3.58,1111122 
SCCF RECON,ioos:station:SCCF:53:1,2008-02-10T21:00:00Z,26.6493,-81.8810,3.82,1111122 
SCCF RECON,ioos:station:SCCF:53:1,2008-02-10T22:00:00Z,26.6493,-81.8810,4.16,1111122 
SCCF RECON,ioos:station:SCCF:53:1,2008-02-10T23:00:00Z,26.6493,-81.8810,4.61,1111122 
SCCF RECON,ioos:station:SCCF:53:1,2008-02-11T00:00:00Z,26.6493,-81.8810,5.0,1111122 
SCCF RECON,ioos:station:SCCF:53:1,2008-02-11T01:00:00Z,26.6493,-81.8810,4.91,1111122 
SCCF RECON,ioos:station:SCCF:53:1,2008-02-11T02:00:00Z,26.6493,-81.8810,4.3,1111122 
SCCF RECON,ioos:station:SCCF:53:1,2008-02-11T03:00:00Z,26.6493,-81.8810,4.46,1111122 
SCCF RECON,ioos:station:SCCF:53:1,2008-02-11T04:00:00Z,26.6493,-81.8810,3.91,1111122 
SCCF RECON,ioos:station:SCCF:53:1,2008-02-11T05:00:00Z,26.6493,-81.8810,3.7,1111122 
SCCF RECON,ioos:station:SCCF:53:1,2008-02-11T06:00:00Z,26.6493,-81.8810,3.72,1111122 
SCCF RECON,ioos:station:SCCF:53:1,2008-02-11T07:00:00Z,26.6493,-81.8810,3.68,1111122 
SCCF RECON,ioos:station:SCCF:53:1,2008-02-11T08:00:00Z,26.6493,-81.8810,3.79,1111122 
SCCF RECON,ioos:station:SCCF:53:1,2008-02-11T09:00:00Z,26.6493,-81.8810,3.94,1111122 
SCCF RECON,ioos:station:SCCF:53:1,2008-02-11T10:00:00Z,26.6493,-81.8810,3.99,1111122 
SCCF RECON,ioos:station:SCCF:53:1,2008-02-11T11:00:00Z,26.6493,-81.8810,3.81,1111122 
SCCF RECON,ioos:station:SCCF:53:1,2008-02-11T12:00:00Z,26.6493,-81.8810,3.67,1111122 
SCCF RECON,ioos:station:SCCF:53:1,2008-02-11T13:00:00Z,26.6493,-81.8810,3.37,1111122 
SCCF RECON,ioos:station:SCCF:53:1,2008-02-11T14:00:00Z,26.6493,-81.8810,3.2,1111122 
SCCF RECON,ioos:station:SCCF:53:1,2008-02-11T15:00:00Z,26.6493,-81.8810,3.22,1111122 
SCCF RECON,ioos:station:SCCF:53:1,2008-02-11T16:00:00Z,26.6493,-81.8810,3.18,1111122 
SCCF RECON,ioos:station:SCCF:53:1,2008-02-11T17:00:00Z,26.6493,-81.8810,3.09,1111122 
SCCF RECON,ioos:station:SCCF:53:1,2008-02-11T18:00:00Z,26.6493,-81.8810,3.28,1111122 
SCCF RECON,ioos:station:SCCF:53:1,2008-02-11T19:00:00Z,26.6493,-81.8810,3.18,1111122 
SCCF RECON,ioos:station:SCCF:53:1,2008-02-11T20:00:00Z,26.6493,-81.8810,3.32,1111122 
SCCF RECON,ioos:station:SCCF:53:1,2008-02-11T21:00:00Z,26.6493,-81.8810,4.19,1111122 
SCCF RECON,ioos:station:SCCF:53:1,2008-02-11T22:00:00Z,26.6493,-81.8810,4.9,1111122 
SCCF RECON,ioos:station:SCCF:53:1,2008-02-11T23:00:00Z,26.6493,-81.8810,5.08,1111122 
SCCF RECON,ioos:station:SCCF:53:1,2008-02-12T00:00:00Z,26.6493,-81.8810,4.3,1111122 
SCCF RECON,ioos:station:SCCF:53:1,2008-02-12T01:00:00Z,26.6493,-81.8810,3.5,1111122 
SCCF RECON,ioos:station:SCCF:53:1,2008-02-12T02:00:00Z,26.6493,-81.8810,3.8,1111122 
SCCF RECON,ioos:station:SCCF:53:1,2008-02-12T03:00:00Z,26.6493,-81.8810,3.98,1111122 
SCCF RECON,ioos:station:SCCF:53:1,2008-02-12T04:00:00Z,26.6493,-81.8810,4.92,1111122 
SCCF RECON,ioos:station:SCCF:53:1,2008-02-12T05:00:00Z,26.6493,-81.8810,4.7,1111122 
SCCF RECON,ioos:station:SCCF:53:1,2008-02-12T06:00:00Z,26.6493,-81.8810,4.79,1111122 
SCCF RECON,ioos:station:SCCF:53:1,2008-02-12T07:00:00Z,26.6493,-81.8810,4.51,1111122 
SCCF RECON,ioos:station:SCCF:53:1,2008-02-12T08:00:00Z,26.6493,-81.8810,4.2,1111122 
SCCF RECON,ioos:station:SCCF:53:1,2008-02-12T09:00:00Z,26.6493,-81.8810,3.67,1111122 
SCCF RECON,ioos:station:SCCF:53:1,2008-02-12T10:00:00Z,26.6493,-81.8810,3.51,1111122 
SCCF RECON,ioos:station:SCCF:53:1,2008-02-12T11:00:00Z,26.6493,-81.8810,3.09,1111122 
SCCF RECON,ioos:station:SCCF:53:1,2008-02-12T12:00:00Z,26.6493,-81.8810,2.88,1111122 
SCCF RECON,ioos:station:SCCF:53:1,2008-02-12T13:00:00Z,26.6493,-81.8810,2.42,1111122 
SCCF RECON,ioos:station:SCCF:53:1,2008-02-12T14:00:00Z,26.6493,-81.8810,2.24,1111122 
SCCF RECON,ioos:station:SCCF:53:1,2008-02-12T15:00:00Z,26.6493,-81.8810,2.49,1111122 
SCCF RECON,ioos:station:SCCF:53:1,2008-02-12T16:00:00Z,26.6493,-81.8810,2.86,1111122 
SCCF RECON,ioos:station:SCCF:53:1,2008-02-12T17:00:00Z,26.6493,-81.8810,2.84,1111122 
SCCF RECON,ioos:station:SCCF:53:1,2008-02-12T18:00:00Z,26.6493,-81.8810,3.05,1111122 
SCCF RECON,ioos:station:SCCF:53:1,2008-02-12T19:00:00Z,26.6493,-81.8810,3.12,1111122 
SCCF RECON,ioos:station:SCCF:53:1,2008-02-12T20:00:00Z,26.6493,-81.8810,3.05,1111122 